Flag for Hong Kong Weather past 2 weeks in Kowloon, Hong Kong

Now
90 °F

Passing clouds.


Feels Like: 105 °F
Forecast: 86 / 95 °F
Wind: 14 mph from Southwest

Location: National Airport

Current Time: Jul 22, 2014 at 11:33:45 PM

Latest Report: Jul 22, 2014 at 11:00 PM


Visibility: N/A

Pressure: 29.56 "Hg

Humidity: 71%

Dew point: 79 °F

Location of KowloonLocation

Historic Weather in Kowloon — Graph

°F

Kowloon temperature yesterday

Maximum temperature yesterday: 91 °F (at 2:30 PM)
Minimum temperature yesterday: 82 °F (at 3:30 AM)
Average temperature yesterday: 87 °F

Past Weeks' High & Low Weather Summary

 TemperatureHumidityPressure
High95 °F (Jul 8, 12:00 PM)94% (Jul 10, 12:30 AM)29.86 "Hg (Jul 10, 12:30 AM)
Low81 °F (Jul 11, 6:30 AM)50% (Jul 8, 1:00 PM)29.47 "Hg (Jul 8, 2:30 PM)
Average87 °F73%29.69 "Hg
* Reported Jul 7 10:00 PM — Jul 22 10:30 PM, Kowloon, Weather by CustomWeather, © 2014

Note: Actual official high and low records may vary slightly from our data, if they occured in-between our weather recording intervals... More about our weather records

Advertising

Kowloon weather history for previous 24 hours

 ConditionsComfort  
Time TempWeatherWind HumidityBarometerVisibility
10:30 PM
Jul 22
90 °FPassing clouds.12 mph71%29.56 "HgN/A
10:00 PM90 °FPassing clouds.14 mph75%29.56 "HgN/A
9:30 PM90 °FPassing clouds.14 mph71%29.56 "HgN/A
9:00 PM90 °FPassing clouds.13 mph67%29.56 "HgN/A
8:30 PM90 °FClear.9 mph67%29.56 "Hg10 mi
8:00 PM90 °FPassing clouds.8 mph71%29.56 "HgN/A
7:30 PM90 °FClear.7 mph71%29.56 "Hg10 mi
7:00 PM91 °FPassing clouds.8 mph63%29.53 "HgN/A
6:30 PM90 °FPassing clouds.10 mph71%29.53 "HgN/A
6:00 PM90 °FPassing clouds.15 mph75%29.50 "HgN/A
5:30 PM91 °FPassing clouds.10 mph71%29.50 "HgN/A
5:00 PM91 °FPassing clouds.8 mph67%29.50 "Hg6 mi
4:30 PM91 °FPassing clouds.8 mph67%29.53 "HgN/A
4:00 PM93 °FPassing clouds.10 mph59%29.53 "HgN/A
3:30 PM93 °FPassing clouds.10 mph59%29.53 "HgN/A
3:00 PM93 °FPassing clouds.8 mph59%29.56 "Hg6 mi
2:30 PM93 °FPassing clouds.6 mph59%29.56 "HgN/A
2:00 PM95 °FPassing clouds.5 mph60%29.59 "Hg5 mi
1:30 PM93 °FPassing clouds.3 mph63%29.59 "Hg6 mi
1:00 PM93 °FPassing clouds.3 mph59%29.62 "Hg6 mi
12:30 PM91 °FPassing clouds.3 mph63%29.62 "Hg5 mi
12:00 PM90 °FPassing clouds.3 mph63%29.65 "Hg4 mi
11:30 AM90 °FPassing clouds.6 mph67%29.65 "Hg3 mi
11:00 AM90 °FHaze.6 mph71%29.65 "Hg2 mi
10:30 AM90 °FHaze.6 mph71%29.65 "Hg2 mi
10:00 AM88 °FPassing clouds.7 mph75%29.65 "Hg4 mi
9:30 AM88 °FPassing clouds.7 mph75%29.65 "HgN/A
9:00 AM88 °FPassing clouds.7 mph75%29.65 "HgN/A
8:30 AM86 °FPassing clouds.6 mph79%29.65 "HgN/A
8:00 AM86 °FPassing clouds.3 mph79%29.65 "HgN/A
7:30 AM88 °FPassing clouds.5 mph70%29.65 "HgN/A
7:00 AM86 °FPassing clouds.3 mph75%29.65 "HgN/A
6:30 AM84 °FPassing clouds.3 mph79%29.65 "HgN/A
6:00 AM84 °FPassing clouds.3 mph74%29.65 "HgN/A
5:30 AM84 °FPassing clouds.1 mph74%29.62 "HgN/A
5:00 AM84 °FPassing clouds.3 mph74%29.62 "HgN/A
4:30 AM82 °FPassing clouds.5 mph79%29.62 "HgN/A
4:00 AM84 °FPassing clouds.6 mph74%29.62 "HgN/A
3:30 AM84 °FPassing clouds.6 mph74%29.62 "HgN/A
3:00 AM84 °FPassing clouds.5 mph74%29.62 "HgN/A
2:30 AM84 °FPassing clouds.5 mph74%29.62 "HgN/A
2:00 AM84 °FPassing clouds.3 mph74%29.65 "HgN/A
1:30 AM86 °FPassing clouds.1 mph70%29.65 "HgN/A
1:00 AM86 °FPassing clouds.1 mph70%29.65 "HgN/A
12:30 AM86 °FPassing clouds.3 mph75%29.65 "HgN/A
12:00 AM88 °FPassing clouds.2 mph66%29.68 "HgN/A
11:30 PM
Jul 21
86 °FPassing clouds.3 mph70%29.68 "HgN/A
11:00 PM86 °FPassing clouds.5 mph70%29.68 "HgN/A
Weather by CustomWeather, © 2014

See weather overviewHow to use our weather pages